COSMOS 1275 DEB, 42221

Orbit data source: Space-Track

COSMOS 1275 DEB, 42221 is space debris in LEO originally from a launch on Thu, 04 Jun 1981 UTC launched from the Plesetsk Missile And Space Complex (PKMTR). Debris objects in space refer to the collection of defunct objects orbiting the Earth. Examples of debris include non-operational satellites, rocket bodies, and fragments generated from explosions, collisions, or faulty payload assembly.

Loading next visibility...
Identifier
42221, 1981-053UM
Orbit
LEO
Country
Flag of CISCIS
Related business
Manufacturer
Unknown
Mission
Spacecraft
Bus & Motor
Unknown
Mass
Unknown
Launch date (UTC)
1981-06-04 (45 years ago)
Launch vehicle
Unknown
Launch site
Plesetsk Missile And Space Complex (PKMTR)
Object type
Payload
Rocket body
Debris
Shape & HBR
Unknown shape, 0.1 m
Radar Cross Section
Small (<0.1 m²)

Expand to show TLE details & history
Last TLE update: 2 days ago

TLE from 2 days ago
0 COSMOS 1275 DEB
1 42221U 81053UM  25340.91751420  .00001114  00000-0  10411-2 0  9997
2 42221  82.8977  39.7870 0079867  54.0045 306.8484 13.79559821604703
Epoch: 2025-12-06T22:01Z
TLE epoch observation values (Epoch: 2025-12-06T22:01:13.226Z)
Latitude
-0.00002°
Longitude
-6.45648°
Altitude
933.476 km
Speed
7.403 km/s
True Right ascension
02h 39m 08s
True Declination
0° 00' 00"
Sunlit
Object was in full shadow at epoch
Visualization orbit readout
Latitude
Unknown
Longitude
Unknown
Altitude
Unknown
Speed
Unknown
Apparent Right ascension
Unknown
Apparent Declination
Unknown
Sunlit
N/A
Visualization observer readout
Local Sidereal Time
01:27:35
Azimuth
Unknown
Elevation
Unknown
Doppler factor
Unknown
Orbital elements
Apogee altitude
1,021.221 km
Perigee altitude
903.964 km
Semi-major axis
7,340.729 km
Eccentricity
0.00799
Inclination
82.8977°
RAAN
39.787°
Arg. of periapsis
54.0045°
True anomaly
306.11164°
Mean anomaly
306.8484°
Eccentric anomaly
306.48046°
Mean motion
3.45092 °/min
Orbital period
104.32 mins
BSTAR
0.0010411
Loading maneuver chart data...
Computing Atmospheric mass density...

Documentation

Showing up to 5 results
|